Simultaneous Nadir Overpasses (SNOs) Predictions

Prediction of SNOs between GOES-16 and METOP-B Satellite Orbit:

Table of predicted SNOs for the next 14.0 days since TLE Epoch: 1/9/2021
Index Date Time (GOES-16) GOES-16 Lat,Lon METOP-B Lat,Lon Distance(km) Time Diff (sec)
1 01/09/2021 14:35:09 0.00, -75.20 0.32, -76.49 148.27 80
2 01/10/2021 14:17:11 0.01, -75.20 -0.81, -71.50 420.70 80
3 01/12/2021 02:36:12 -0.01, -75.17 -0.24, -76.10 106.36 80
4 01/13/2021 02:12:54 -0.01, -75.17 0.90, -71.11 462.81 80
5 01/14/2021 14:34:26 0.01, -75.21 0.11, -75.68 53.04 80
6 01/17/2021 02:32:49 -0.01, -75.21 -0.02, -75.28 8.67 80
7 01/19/2021 14:28:23 0.01, -75.27 -0.11, -74.86 47.41 80
8 01/21/2021 02:50:04 -0.01, -75.27 -0.94, -79.46 476.78 80
9 01/22/2021 02:26:46 -0.01, -75.29 0.20, -74.47 94.02 80
